| time (UTC) | temp F | wind direction | speed knots | gust knots | rain 1hr in | rain 24hr in | rain mn in | humidity % | barometer mb |
| 20260510120537 | 47 | 3 | 2.6 | 5.2 | 0.00 | 0.01 | 0.01 | 59 | 1036.0 |
| 20260510120032 | 46 | 314 | 4.3 | 5.2 | 0.00 | 0.01 | 0.01 | 59 | 1035.8 |
| 20260510115529 | 46 | 313 | 5.2 | 5.2 | 0.00 | 0.01 | 0.01 | 60 | 1035.7 |
| 20260510115026 | 45 | 342 | 3.5 | 7.0 | 0.00 | 0.01 | 0.01 | 61 | 1035.8 |
| 20260510114522 | 45 | 307 | 6.1 | 9.6 | 0.00 | 0.01 | 0.01 | 61 | 1035.6 |
| 20260510114018 | 45 | 318 | 5.2 | 8.7 | 0.00 | 0.01 | 0.01 | 62 | 1035.7 |
| 20260510113513 | 45 | 4 | 2.6 | 6.1 | 0.00 | 0.01 | 0.01 | 62 | 1035.4 |
| 20260510113011 | 44 | 283 | 5.2 | 9.6 | 0.00 | 0.01 | 0.01 | 62 | 1035.5 |
| 20260510112508 | 44 | 282 | 5.2 | 6.1 | 0.00 | 0.01 | 0.01 | 63 | 1035.5 |
| 20260510112004 | 43 | 342 | 1.7 | 7.0 | 0.00 | 0.01 | 0.01 | 64 | 1035.3 |
| 20260510111501 | 43 | 307 | 3.5 | 6.1 | 0.00 | 0.01 | 0.01 | 64 | 1035.4 |
| 20260510110957 | 42 | 278 | 6.1 | 6.1 | 0.00 | 0.01 | 0.01 | 66 | 1035.3 |
| 20260510110453 | 42 | 117 | 1.7 | 3.5 | 0.00 | 0.01 | 0.01 | 67 | 1035.0 |
| 20260510105949 | 41 | 269 | 1.7 | 8.7 | 0.00 | 0.01 | 0.01 | 67 | 1035.0 |
| 20260510105444 | 41 | 309 | 1.7 | 6.1 | 0.00 | 0.01 | 0.01 | 67 | 1034.9 |
| 20260510104940 | 41 | 212 | 1.7 | 3.5 | 0.00 | 0.01 | 0.01 | 68 | 1034.8 |
| 20260510104437 | 41 | 50 | 0.9 | 4.3 | 0.00 | 0.01 | 0.01 | 68 | 1034.6 |
| 20260510103933 | 41 | 240 | 2.6 | 2.6 | 0.00 | 0.01 | 0.01 | 68 | 1034.4 |
| 20260510103431 | 41 | 45 | 1.7 | 4.3 | 0.00 | 0.01 | 0.01 | 68 | 1034.2 |
| 20260510102926 | 40 | 42 | 2.6 | 5.2 | 0.00 | 0.01 | 0.01 | 69 | 1034.4 |
| 20260510102422 | 40 | 158 | 0.0 | 3.5 | 0.00 | 0.01 | 0.01 | 70 | 1034.1 |
| 20260510101919 | 40 | 284 | 0.9 | 2.6 | 0.00 | 0.01 | 0.01 | 70 | 1034.0 |
| 20260510101417 | 40 | 290 | 5.2 | 5.2 | 0.00 | 0.01 | 0.01 | 70 | 1033.9 |
| 20260510100914 | 40 | 277 | 1.7 | 3.5 | 0.00 | 0.01 | 0.01 | 71 | 1033.8 |
| 20260510100411 | 40 | 296 | 0.0 | 3.5 | 0.00 | 0.01 | 0.01 | 71 | 1033.7 |
| 20260510095907 | 40 | 154 | 0.0 | 1.7 | 0.00 | 0.01 | 0.01 | 71 | 1033.6 |
| 20260510095402 | 40 | 269 | 2.6 | 2.6 | 0.00 | 0.01 | 0.01 | 71 | 1033.6 |
| 20260510094856 | 40 | 298 | 1.7 | 1.7 | 0.00 | 0.01 | 0.01 | 71 | 1033.6 |
| 20260510094352 | 40 | 279 | 0.9 | 3.5 | 0.00 | 0.01 | 0.01 | 71 | 1033.3 |
| 20260510093848 | 40 | 55 | 0.0 | 5.2 | 0.00 | 0.01 | 0.01 | 71 | 1033.4 |
| 20260510093344 | 40 | 328 | 0.0 | 3.5 | 0.00 | 0.01 | 0.01 | 70 | 1033.2 |
| 20260510092840 | 40 | 307 | 1.7 | 3.5 | 0.00 | 0.01 | 0.01 | 70 | 1033.4 |
| 20260510092337 | 40 | 219 | 1.7 | 2.6 | 0.00 | 0.01 | 0.01 | 70 | 1033.2 |
| 20260510091832 | 40 | 288 | 0.9 | 1.7 | 0.00 | 0.01 | 0.01 | 70 | 1033.1 |
| 20260510091329 | 40 | 31 | 0.0 | 1.7 | 0.00 | 0.01 | 0.01 | 70 | 1033.0 |
| 20260510090826 | 41 | 164 | 0.0 | 1.7 | 0.00 | 0.01 | 0.01 | 70 | 1032.8 |
| 20260510090323 | 41 | 81 | 0.0 | 2.6 | 0.00 | 0.01 | 0.01 | 70 | 1032.8 |
| 20260510085818 | 41 | 16 | 0.9 | 2.6 | 0.00 | 0.01 | 0.01 | 69 | 1032.6 |
| 20260510085313 | 41 | 277 | 2.6 | 2.6 | 0.00 | 0.01 | 0.01 | 69 | 1032.7 |
| 20260510084809 | 41 | 198 | 0.9 | 4.3 | 0.00 | 0.01 | 0.01 | 69 | 1032.4 |
| 20260510084306 | 41 | 355 | 2.6 | 2.6 | 0.00 | 0.01 | 0.01 | 69 | 1032.7 |
| 20260510083803 | 41 | 313 | 1.7 | 3.5 | 0.00 | 0.01 | 0.01 | 68 | 1032.6 |
| 20260510083300 | 41 | 306 | 1.7 | 3.5 | 0.00 | 0.01 | 0.01 | 68 | 1032.7 |
| 20260510082755 | 42 | 257 | 2.6 | 2.6 | 0.00 | 0.01 | 0.01 | 68 | 1032.2 |
| 20260510082252 | 42 | 259 | 1.7 | 3.5 | 0.00 | 0.01 | 0.01 | 68 | 1032.4 |
| 20260510081750 | 42 | 273 | 2.6 | 2.6 | 0.00 | 0.01 | 0.01 | 68 | 1032.4 |
| 20260510081247 | 42 | 280 | 3.5 | 3.5 | 0.00 | 0.01 | 0.01 | 68 | 1032.4 |
| 20260510080743 | 42 | 43 | 1.7 | 2.6 | 0.00 | 0.01 | 0.01 | 68 | 1032.4 |
| 20260510080238 | 42 | 290 | 1.7 | 3.5 | 0.00 | 0.01 | 0.01 | 67 | 1032.4 |
| 20260510075735 | 43 | 288 | 1.7 | 2.6 | 0.00 | 0.01 | 0.01 | 67 | 1032.2 |
| 20260510075233 | 43 | 228 | 1.7 | 4.3 | 0.00 | 0.01 | 0.01 | 66 | 1032.2 |
| 20260510074730 | 43 | 281 | 2.6 | 4.3 | 0.00 | 0.01 | 0.01 | 65 | 1032.1 |
| 20260510074226 | 43 | 326 | 2.6 | 3.5 | 0.00 | 0.01 | 0.01 | 65 | 1032.1 |
| 20260510073722 | 43 | 291 | 3.5 | 4.3 | 0.00 | 0.01 | 0.01 | 65 | 1031.9 |
| 20260510073219 | 44 | 15 | 1.7 | 3.5 | 0.00 | 0.01 | 0.01 | 65 | 1031.9 |
| 20260510072714 | 44 | 325 | 2.6 | 5.2 | 0.00 | 0.01 | 0.01 | 64 | 1031.8 |
| 20260510072211 | 44 | 323 | 3.5 | 5.2 | 0.00 | 0.01 | 0.01 | 64 | 1031.9 |
| 20260510071708 | 45 | 43 | 1.7 | 3.5 | 0.00 | 0.01 | 0.01 | 63 | 1031.9 |
| 20260510071205 | 45 | 338 | 2.6 | 5.2 | 0.00 | 0.01 | 0.01 | 62 | 1031.8 |
| 20260510070702 | 45 | 347 | 3.5 | 5.2 | 0.00 | 0.01 | 0.01 | 61 | 1031.7 |
| 20260510070200 | 46 | 335 | 4.3 | 7.0 | 0.00 | 0.01 | 0.01 | 61 | 1031.7 |
| 20260510065700 | 46 | 356 | 4.3 | 7.0 | 0.00 | 0.01 | 0.01 | 59 | 1031.8 |
| 20260510065156 | 47 | 305 | 5.2 | 6.1 | 0.00 | 0.01 | 0.01 | 59 | 1031.7 |
| 20260510064653 | 47 | 313 | 4.3 | 6.1 | 0.00 | 0.01 | 0.01 | 59 | 1031.5 |
| 20260510064150 | 47 | 292 | 3.5 | 5.2 | 0.00 | 0.01 | 0.01 | 58 | 1031.5 |
| 20260510063647 | 47 | 325 | 5.2 | 7.8 | 0.00 | 0.01 | 0.01 | 57 | 1031.4 |
| 20260510063143 | 48 | 303 | 6.1 | 7.8 | 0.00 | 0.01 | 0.01 | 56 | 1031.4 |
| 20260510062640 | 48 | 348 | 4.3 | 8.7 | 0.00 | 0.01 | 0.01 | 58 | 1031.4 |
| 20260510062136 | 48 | 6 | 3.5 | 7.8 | 0.00 | 0.01 | 0.01 | 58 | 1031.2 |
| 20260510061631 | 48 | 12 | 3.5 | 6.1 | 0.00 | 0.01 | 0.01 | 59 | 1031.3 |
| 20260510061129 | 48 | 348 | 4.3 | 5.2 | 0.00 | 0.01 | 0.01 | 59 | 1031.1 |
| 20260510060625 | 48 | 358 | 3.5 | 6.1 | 0.00 | 0.01 | 0.01 | 60 | 1031.4 |
| 20260510060121 | 48 | 356 | 2.6 | 5.2 | 0.00 | 0.01 | 0.01 | 60 | 1031.0 |
| 20260510055618 | 48 | 328 | 2.6 | 5.2 | 0.00 | 0.01 | 0.01 | 60 | 1031.1 |
| 20260510055116 | 48 | 341 | 2.6 | 5.2 | 0.00 | 0.01 | 0.01 | 61 | 1030.8 |
| 20260510054611 | 48 | 0 | 2.6 | 6.1 | 0.00 | 0.01 | 0.01 | 60 | 1031.0 |
| 20260510054106 | 49 | 357 | 3.5 | 5.2 | 0.00 | 0.01 | 0.01 | 61 | 1030.9 |
| 20260510053601 | 49 | 7 | 2.6 | 6.1 | 0.00 | 0.01 | 0.01 | 61 | 1030.6 |
| 20260510053058 | 49 | 357 | 3.5 | 7.0 | 0.00 | 0.01 | 0.01 | 63 | 1030.5 |
| 20260510052554 | 49 | 348 | 1.7 | 4.3 | 0.00 | 0.01 | 0.01 | 64 | 1030.8 |
| 20260510052050 | 49 | 339 | 3.5 | 5.2 | 0.02 | 0.01 | 0.01 | 64 | 1030.6 |
| 20260510051546 | 49 | 343 | 2.6 | 5.2 | 0.02 | 0.01 | 0.01 | 64 | 1030.8 |
| 20260510051042 | 49 | 344 | 1.7 | 3.5 | 0.02 | 0.00 | 0.00 | 65 | 1030.5 |
| 20260510050539 | 49 | 336 | 3.5 | 3.5 | 0.02 | 0.00 | 0.00 | 63 | 1030.6 |
| 20260510050036 | 49 | 327 | 1.7 | 5.2 | 0.00 | 0.00 | 0.00 | 63 | 1030.9 |
| 20260510045534 | 49 | 318 | 3.5 | 4.3 | 0.00 | 0.00 | 0.00 | 63 | 1030.7 |
| 20260510045029 | 49 | 356 | 2.6 | 5.2 | 0.00 | 0.00 | 0.00 | 65 | 1030.6 |
| 20260510044526 | 50 | 349 | 3.5 | 4.3 | 0.00 | 0.00 | 0.00 | 66 | 1030.4 |
| 20260510044024 | 50 | 345 | 3.5 | 5.2 | 0.00 | 0.00 | 0.00 | 64 | 1030.1 |
| 20260510043519 | 50 | 347 | 2.6 | 3.5 | 0.00 | 0.00 | 0.00 | 63 | 1030.3 |
| 20260510043015 | 50 | 326 | 2.6 | 3.5 | 0.00 | 0.00 | 0.00 | 63 | 1030.4 |
| 20260510042509 | 50 | 318 | 3.5 | 3.5 | 0.00 | 0.00 | 0.00 | 63 | 1030.1 |
| 20260510042004 | 50 | 344 | 1.7 | 3.5 | 0.00 | 0.00 | 0.00 | 64 | 1030.1 |
| 20260510041502 | 50 | 347 | 2.6 | 3.5 | 0.00 | 0.00 | 0.00 | 64 | 1029.9 |
| 20260510040959 | 50 | 347 | 2.6 | 4.3 | 0.00 | 0.00 | 0.00 | 62 | 1030.0 |
| 20260510040455 | 50 | 7 | 2.6 | 4.3 | 0.00 | 0.00 | 0.00 | 63 | 1029.7 |
| 20260510035951 | 50 | 29 | 0.0 | 5.2 | 0.00 | 0.13 | 0.13 | 64 | 1029.5 |
| 20260510035448 | 50 | 359 | 3.5 | 7.0 | 0.00 | 0.13 | 0.13 | 65 | 1029.8 |
| 20260510034947 | 49 | 328 | 3.5 | 4.3 | 0.00 | 0.13 | 0.13 | 67 | 1029.8 |
| 20260510034447 | 49 | 346 | 2.6 | 2.6 | 0.00 | 0.13 | 0.13 | 68 | 1029.6 |
| 20260510033943 | 49 | 349 | 1.7 | 2.6 | 0.00 | 0.13 | 0.13 | 68 | 1029.5 |
| 20260510033439 | 50 | 345 | 1.7 | 3.5 | 0.00 | 0.13 | 0.13 | 67 | 1029.4 |
| 20260510032937 | 50 | 30 | 1.7 | 2.6 | 0.00 | 0.13 | 0.13 | 66 | 1029.4 |
| 20260510032434 | 50 | 309 | 1.7 | 2.6 | 0.00 | 0.13 | 0.13 | 66 | 1029.2 |
| 20260510031933 | 50 | 306 | 1.7 | 2.6 | 0.00 | 0.13 | 0.13 | 65 | 1029.2 |
| 20260510031429 | 51 | 32 | 1.7 | 2.6 | 0.00 | 0.13 | 0.13 | 64 | 1029.2 |
| 20260510030925 | 51 | 47 | 0.0 | 3.5 | 0.00 | 0.13 | 0.13 | 63 | 1029.1 |
| 20260510030421 | 51 | 73 | 1.7 | 5.2 | 0.00 | 0.13 | 0.13 | 63 | 1029.1 |
| 20260510025919 | 52 | 101 | 0.0 | 2.6 | 0.00 | 0.13 | 0.13 | 64 | 1029.3 |
| 20260510025416 | 52 | 356 | 0.0 | 2.6 | 0.00 | 0.13 | 0.13 | 64 | 1029.4 |
| 20260510024913 | 52 | 263 | 2.6 | 3.5 | 0.00 | 0.13 | 0.13 | 66 | 1029.3 |
| 20260510024409 | 53 | 162 | 1.7 | 1.7 | 0.00 | 0.13 | 0.13 | 66 | 1029.2 |
| 20260510023905 | 53 | 125 | 0.0 | 3.5 | 0.00 | 0.13 | 0.13 | 67 | 1029.0 |
| 20260510023402 | 53 | 148 | 0.0 | 7.8 | 0.00 | 0.13 | 0.13 | 68 | 1029.2 |
| 20260510022859 | 53 | 327 | 0.9 | 3.5 | 0.00 | 0.13 | 0.13 | 69 | 1029.2 |
| 20260510022358 | 54 | 10 | 0.9 | 5.2 | 0.00 | 0.13 | 0.13 | 71 | 1029.0 |
| 20260510021857 | 54 | 100 | 2.6 | 3.5 | 0.00 | 0.13 | 0.13 | 72 | 1028.8 |
| 20260510021355 | 54 | 232 | 1.7 | 3.5 | 0.00 | 0.13 | 0.13 | 78 | 1028.9 |
| 20260510020852 | 54 | 93 | 1.7 | 5.2 | 0.00 | 0.13 | 0.13 | 83 | 1028.8 |
| 20260510020352 | 53 | 235 | 0.9 | 6.1 | 0.02 | 0.13 | 0.13 | 86 | 1028.4 |
| 20260510015848 | 53 | 273 | 1.7 | 3.5 | 0.00 | 0.13 | 0.13 | 87 | 1028.3 |
| 20260510015344 | 53 | 319 | 0.0 | 3.5 | 0.00 | 0.13 | 0.13 | 87 | 1028.1 |
| 20260510014839 | 53 | 243 | 0.0 | 1.7 | 0.00 | 0.13 | 0.13 | 87 | 1028.3 |
| 20260510014337 | 53 | 294 | 1.7 | 3.5 | 0.00 | 0.13 | 0.13 | 88 | 1027.9 |
| 20260510013833 | 53 | 118 | 0.0 | 2.6 | 0.00 | 0.13 | 0.13 | 88 | 1027.9 |
| 20260510013329 | 53 | 256 | 0.0 | 2.6 | 0.00 | 0.13 | 0.13 | 88 | 1027.7 |
| 20260510012824 | 52 | 296 | 0.0 | 3.5 | 0.00 | 0.13 | 0.13 | 88 | 1027.4 |
| 20260510012323 | 52 | 254 | 1.7 | 1.7 | 0.00 | 0.13 | 0.13 | 88 | 1027.4 |
| 20260510011818 | 52 | 249 | 0.0 | 1.7 | 0.00 | 0.13 | 0.13 | 88 | 1027.1 |
| 20260510011314 | 52 | 170 | 0.0 | 2.6 | 0.00 | 0.13 | 0.13 | 88 | 1027.1 |
| 20260510010811 | 52 | 272 | 0.9 | 1.7 | 0.00 | 0.13 | 0.13 | 88 | 1026.9 |
| 20260510010308 | 53 | 225 | 1.7 | 2.6 | 0.00 | 0.13 | 0.13 | 88 | 1026.6 |
| 20260510005805 | 53 | 239 | 0.0 | 3.5 | 0.00 | 0.13 | 0.13 | 87 | 1026.5 |
| 20260510005300 | 53 | 257 | 1.7 | 2.6 | 0.00 | 0.13 | 0.13 | 86 | 1026.3 |
| 20260510004759 | 53 | 32 | 0.9 | 2.6 | 0.00 | 0.13 | 0.13 | 86 | 1026.3 |
| 20260510004256 | 53 | 293 | 1.7 | 4.3 | 0.00 | 0.13 | 0.13 | 86 | 1026.4 |
| 20260510003753 | 54 | 242 | 1.7 | 2.6 | 0.00 | 0.13 | 0.13 | 85 | 1026.4 |
| 20260510003250 | 54 | 258 | 2.6 | 3.5 | 0.00 | 0.13 | 0.13 | 85 | 1026.2 |
| 20260510002748 | 54 | 254 | 0.0 | 3.5 | 0.00 | 0.13 | 0.13 | 85 | 1026.2 |
| 20260510002246 | 54 | 323 | 0.9 | 3.5 | 0.00 | 0.13 | 0.13 | 84 | 1026.1 |
| 20260510001743 | 55 | 271 | 1.7 | 3.5 | 0.00 | 0.13 | 0.13 | 84 | 1026.2 |
| 20260510001241 | 55 | 301 | 1.7 | 3.5 | 0.00 | 0.13 | 0.13 | 84 | 1026.1 |
| 20260510000737 | 55 | 291 | 0.0 | 5.2 | 0.00 | 0.13 | 0.13 | 85 | 1026.0 |
| 20260510000234 | 55 | 289 | 1.7 | 3.5 | 0.00 | 0.13 | 0.13 | 84 | 1025.8 |
| 20260509235731 | 55 | 4 | 0.9 | 3.5 | 0.00 | 0.13 | 0.13 | 84 | 1025.6 |
| 20260509235227 | 55 | 342 | 0.9 | 6.1 | 0.07 | 0.13 | 0.13 | 83 | 1025.7 |
| 20260509234723 | 56 | 279 | 3.5 | 5.2 | 0.09 | 0.13 | 0.13 | 83 | 1025.5 |
| 20260509234221 | 56 | 309 | 2.6 | 6.1 | 0.02 | 0.12 | 0.12 | 82 | 1025.7 |
| 20260509233720 | 56 | 333 | 2.6 | 4.3 | 0.00 | 0.11 | 0.11 | 82 | 1025.7 |
| 20260509233217 | 56 | 2 | 1.7 | 5.2 | 0.00 | 0.11 | 0.11 | 81 | 1025.4 |
| 20260509232713 | 56 | 262 | 5.2 | 7.0 | 0.00 | 0.11 | 0.11 | 80 | 1025.5 |
| 20260509232210 | 56 | 325 | 2.6 | 7.0 | 0.00 | 0.11 | 0.11 | 79 | 1025.1 |
| 20260509231706 | 56 | 319 | 2.6 | 4.3 | 0.00 | 0.11 | 0.11 | 78 | 1025.1 |
| 20260509231203 | 56 | 336 | 1.7 | 5.2 | 0.00 | 0.11 | 0.11 | 77 | 1025.0 |
| 20260509230700 | 57 | 6 | 2.6 | 5.2 | 0.00 | 0.11 | 0.11 | 76 | 1024.9 |
| 20260509230157 | 57 | 21 | 1.7 | 5.2 | 0.00 | 0.11 | 0.11 | 75 | 1024.8 |
| 20260509225653 | 57 | 355 | 2.6 | 13.0 | 0.00 | 0.11 | 0.11 | 74 | 1024.8 |
| 20260509225148 | 57 | 306 | 4.3 | 5.2 | 0.00 | 0.11 | 0.11 | 76 | 1024.9 |
| 20260509224644 | 57 | 294 | 2.6 | 7.0 | 0.00 | 0.11 | 0.11 | 76 | 1025.0 |
| 20260509224141 | 57 | 313 | 2.6 | 5.2 | 0.00 | 0.11 | 0.11 | 77 | 1025.2 |
| 20260509223638 | 57 | 349 | 3.5 | 7.0 | 0.00 | 0.11 | 0.11 | 77 | 1025.1 |
| 20260509223135 | 56 | 359 | 4.3 | 7.0 | 0.00 | 0.11 | 0.11 | 80 | 1024.9 |
| 20260509222632 | 56 | 272 | 3.5 | 7.8 | 0.00 | 0.11 | 0.11 | 81 | 1025.1 |
| 20260509222127 | 55 | 271 | 2.6 | 5.2 | 0.00 | 0.11 | 0.11 | 81 | 1024.8 |
| 20260509221624 | 55 | 333 | 2.6 | 3.5 | 0.00 | 0.11 | 0.11 | 82 | 1024.9 |
| 20260509221120 | 55 | 310 | 3.5 | 7.8 | 0.00 | 0.11 | 0.11 | 83 | 1025.1 |
| 20260509220616 | 55 | 333 | 2.6 | 8.7 | 0.00 | 0.11 | 0.11 | 83 | 1025.1 |
| 20260509220112 | 55 | 327 | 3.5 | 8.7 | 0.00 | 0.11 | 0.11 | 82 | 1025.0 |
| 20260509215608 | 56 | 250 | 6.1 | 12.2 | 0.09 | 0.11 | 0.11 | 84 | 1025.3 |
| 20260509215105 | 56 | 292 | 5.2 | 8.7 | 0.21 | 0.11 | 0.11 | 86 | 1025.2 |
| 20260509214602 | 56 | 359 | 2.6 | 10.4 | 0.26 | 0.09 | 0.09 | 84 | 1025.2 |
| 20260509214059 | 57 | 265 | 4.3 | 13.0 | 0.26 | 0.07 | 0.07 | 80 | 1025.2 |
| 20260509213555 | 57 | 17 | 3.5 | 7.0 | 0.19 | 0.04 | 0.04 | 83 | 1025.1 |
| 20260509213052 | 58 | 320 | 3.5 | 6.1 | 0.17 | 0.03 | 0.03 | 80 | 1024.9 |
| 20260509212549 | 59 | 338 | 2.6 | 5.2 | 0.07 | 0.01 | 0.01 | 76 | 1025.1 |
| 20260509212046 | 59 | 274 | 5.2 | 7.8 | 0.00 | 0.00 | 0.00 | 72 | 1025.1 |
| 20260509211542 | 59 | 355 | 3.5 | 7.0 | 0.00 | 0.00 | 0.00 | 71 | 1025.0 |
| 20260509211039 | 60 | 139 | 3.5 | 8.7 | 0.00 | 0.00 | 0.00 | 70 | 1025.0 |
| 20260509210536 | 60 | 278 | 2.6 | 4.3 | 0.00 | 0.00 | 0.00 | 69 | 1024.9 |
| 20260509210032 | 60 | 280 | 3.5 | 8.7 | 0.00 | 0.00 | 0.00 | 69 | 1024.8 |
| 20260509205532 | 60 | 310 | 5.2 | 5.2 | 0.00 | 0.00 | 0.00 | 68 | 1024.6 |
| 20260509205027 | 60 | 234 | 4.3 | 7.8 | 0.00 | 0.00 | 0.00 | 68 | 1024.5 |
| 20260509204524 | 60 | 290 | 3.5 | 6.1 | 0.00 | 0.00 | 0.00 | 67 | 1024.2 |
| 20260509204020 | 60 | 331 | 1.7 | 6.1 | 0.00 | 0.00 | 0.00 | 68 | 1024.3 |
| 20260509203516 | 60 | 274 | 7.8 | 10.4 | 0.00 | 0.00 | 0.00 | 67 | 1024.5 |
| 20260509203015 | 60 | 0 | 5.2 | 9.6 | 0.00 | 0.00 | 0.00 | 68 | 1024.6 |
| 20260509202515 | 60 | 256 | 2.6 | 9.6 | 0.00 | 0.00 | 0.00 | 67 | 1024.7 |
| 20260509202010 | 60 | 246 | 1.7 | 6.1 | 0.00 | 0.00 | 0.00 | 67 | 1024.9 |
| 20260509201505 | 60 | 255 | 0.9 | 6.1 | 0.00 | 0.00 | 0.00 | 67 | 1024.9 |
| 20260509201003 | 60 | 129 | 3.5 | 5.2 | 0.00 | 0.00 | 0.00 | 67 | 1024.7 |
| 20260509200458 | 60 | 129 | 1.7 | 5.2 | 0.00 | 0.00 | 0.00 | 67 | 1024.8 |
| 20260509195954 | 60 | 252 | 7.0 | 7.8 | 0.00 | 0.00 | 0.00 | 68 | 1025.2 |
| 20260509195450 | 60 | 209 | 5.2 | 10.4 | 0.00 | 0.00 | 0.00 | 67 | 1025.4 |
| 20260509194949 | 60 | 310 | 1.7 | 7.0 | 0.00 | 0.00 | 0.00 | 67 | 1025.3 |
| 20260509194445 | 60 | 161 | 2.6 | 8.7 | 0.00 | 0.00 | 0.00 | 67 | 1025.5 |
| 20260509193942 | 60 | 69 | 2.6 | 6.1 | 0.00 | 0.00 | 0.00 | 66 | 1025.4 |
| 20260509193442 | 60 | 259 | 3.5 | 10.4 | 0.00 | 0.00 | 0.00 | 66 | 1025.4 |
| 20260509192938 | 60 | 340 | 2.6 | 7.0 | 0.00 | 0.00 | 0.00 | 66 | 1025.5 |
| 20260509192435 | 60 | 241 | 1.7 | 7.0 | 0.00 | 0.00 | 0.00 | 66 | 1025.7 |
| 20260509191930 | 61 | 130 | 1.7 | 11.3 | 0.00 | 0.00 | 0.00 | 65 | 1025.8 |
| 20260509191425 | 61 | 284 | 6.1 | 8.7 | 0.00 | 0.00 | 0.00 | 65 | 1025.7 |
| 20260509190922 | 61 | 254 | 7.8 | 14.8 | 0.00 | 0.00 | 0.00 | 65 | 1025.6 |
| 20260509190419 | 61 | 185 | 3.5 | 10.4 | 0.00 | 0.00 | 0.00 | 65 | 1025.5 |
| 20260509185917 | 61 | 259 | 3.5 | 14.8 | 0.00 | 0.00 | 0.00 | 65 | 1025.7 |
| 20260509185414 | 62 | 301 | 2.6 | 14.8 | 0.00 | 0.00 | 0.00 | 65 | 1025.8 |
| 20260509184910 | 62 | 237 | 4.3 | 11.3 | 0.00 | 0.00 | 0.00 | 64 | 1025.9 |
| 20260509184408 | 62 | 254 | 6.1 | 13.0 | 0.00 | 0.00 | 0.00 | 64 | 1025.8 |
| 20260509183905 | 63 | 257 | 3.5 | 6.1 | 0.00 | 0.00 | 0.00 | 64 | 1025.6 |
| 20260509183359 | 64 | 239 | 3.5 | 13.0 | 0.00 | 0.00 | 0.00 | 62 | 1025.7 |
| 20260509182855 | 64 | 296 | 7.0 | 14.8 | 0.00 | 0.00 | 0.00 | 61 | 1025.8 |
| 20260509182353 | 63 | 285 | 7.0 | 9.6 | 0.00 | 0.00 | 0.00 | 63 | 1025.7 |
| 20260509181850 | 63 | 211 | 3.5 | 13.0 | 0.00 | 0.00 | 0.00 | 63 | 1025.7 |
| 20260509181347 | 64 | 282 | 3.5 | 9.6 | 0.00 | 0.00 | 0.00 | 61 | 1025.9 |
| 20260509180845 | 65 | 298 | 5.2 | 6.1 | 0.00 | 0.00 | 0.00 | 59 | 1025.7 |
| 20260509180340 | 65 | 224 | 6.1 | 11.3 | 0.00 | 0.00 | 0.00 | 61 | 1025.8 |
| 20260509175837 | 64 | 284 | 5.2 | 8.7 | 0.00 | 0.00 | 0.00 | 61 | 1025.6 |
| 20260509175333 | 64 | 295 | 3.5 | 8.7 | 0.00 | 0.00 | 0.00 | 62 | 1026.0 |
| 20260509174829 | 64 | 320 | 7.0 | 12.2 | 0.00 | 0.00 | 0.00 | 63 | 1026.2 |
| 20260509174325 | 64 | 199 | 5.2 | 7.0 | 0.00 | 0.00 | 0.00 | 62 | 1026.2 |
| 20260509173821 | 64 | 203 | 3.5 | 16.5 | 0.00 | 0.00 | 0.00 | 61 | 1026.4 |
| 20260509173317 | 63 | 197 | 3.5 | 9.6 | 0.00 | 0.00 | 0.00 | 64 | 1026.2 |
| 20260509172813 | 63 | 160 | 3.5 | 8.7 | 0.00 | 0.00 | 0.00 | 63 | 1026.3 |
| 20260509172310 | 63 | 120 | 2.6 | 8.7 | 0.00 | 0.00 | 0.00 | 64 | 1026.6 |
| 20260509171806 | 62 | 311 | 2.6 | 7.8 | 0.00 | 0.00 | 0.00 | 66 | 1026.7 |
| 20260509171302 | 62 | 209 | 5.2 | 10.4 | 0.00 | 0.00 | 0.00 | 66 | 1026.8 |
| 20260509170759 | 61 | 200 | 4.3 | 7.8 | 0.00 | 0.00 | 0.00 | 66 | 1027.2 |
| 20260509170255 | 61 | 248 | 1.7 | 6.1 | 0.00 | 0.00 | 0.00 | 67 | 1027.2 |
| 20260509165754 | 62 | 219 | 3.5 | 9.6 | 0.00 | 0.00 | 0.00 | 65 | 1027.3 |
| 20260509165249 | 61 | 249 | 3.5 | 8.7 | 0.00 | 0.00 | 0.00 | 68 | 1027.3 |
| 20260509164745 | 60 | 268 | 2.6 | 8.7 | 0.00 | 0.00 | 0.00 | 71 | 1027.5 |
| 20260509164241 | 59 | 356 | 0.9 | 7.8 | 0.00 | 0.00 | 0.00 | 72 | 1027.3 |
| 20260509163738 | 59 | 9 | 2.6 | 7.8 | 0.00 | 0.00 | 0.00 | 71 | 1027.4 |
| 20260509163235 | 59 | 257 | 2.6 | 4.3 | 0.00 | 0.00 | 0.00 | 72 | 1027.6 |
| 20260509162733 | 59 | 174 | 3.5 | 11.3 | 0.00 | 0.00 | 0.00 | 72 | 1027.6 |
| 20260509162227 | 60 | 240 | 4.3 | 7.0 | 0.00 | 0.00 | 0.00 | 72 | 1027.5 |
| 20260509161723 | 59 | 337 | 0.0 | 7.8 | 0.00 | 0.00 | 0.00 | 72 | 1027.6 |
| 20260509161220 | 59 | 192 | 5.2 | 6.1 | 0.00 | 0.00 | 0.00 | 73 | 1027.6 |
| 20260509160715 | 58 | 350 | 0.9 | 3.5 | 0.00 | 0.00 | 0.00 | 75 | 1027.8 |
| 20260509160211 | 58 | 287 | 3.5 | 6.1 | 0.00 | 0.00 | 0.00 | 73 | 1027.8 |
| 20260509155706 | 59 | 242 | 3.5 | 5.2 | 0.00 | 0.00 | 0.00 | 73 | 1028.1 |
| 20260509155203 | 58 | 35 | 1.7 | 7.0 | 0.00 | 0.00 | 0.00 | 76 | 1028.1 |
| 20260509154659 | 57 | 255 | 2.6 | 7.0 | 0.00 | 0.00 | 0.00 | 78 | 1028.1 |
| 20260509154157 | 56 | 335 | 3.5 | 6.1 | 0.00 | 0.00 | 0.00 | 78 | 1028.3 |
| 20260509153653 | 56 | 269 | 3.5 | 4.3 | 0.00 | 0.00 | 0.00 | 78 | 1028.5 |
| 20260509153150 | 56 | 10 | 2.6 | 5.2 | 0.00 | 0.00 | 0.00 | 79 | 1028.3 |
| 20260509152646 | 56 | 353 | 2.6 | 5.2 | 0.00 | 0.00 | 0.00 | 80 | 1028.5 |
| 20260509152143 | 55 | 60 | 1.7 | 5.2 | 0.00 | 0.00 | 0.00 | 81 | 1028.4 |
| 20260509151639 | 54 | 312 | 2.6 | 5.2 | 0.00 | 0.00 | 0.00 | 82 | 1028.5 |
| 20260509151137 | 54 | 294 | 2.6 | 7.8 | 0.00 | 0.00 | 0.00 | 82 | 1028.7 |
| 20260509150635 | 54 | 328 | 0.9 | 1.7 | 0.00 | 0.00 | 0.00 | 83 | 1028.8 |
| 20260509150133 | 54 | 162 | 3.5 | 3.5 | 0.00 | 0.00 | 0.00 | 82 | 1028.6 |
| 20260509145629 | 53 | 10 | 1.7 | 3.5 | 0.00 | 0.00 | 0.00 | 83 | 1028.3 |
| 20260509145124 | 53 | 258 | 1.7 | 4.3 | 0.00 | 0.00 | 0.00 | 83 | 1028.4 |
| 20260509144621 | 53 | 256 | 1.7 | 6.1 | 0.00 | 0.00 | 0.00 | 82 | 1028.4 |
| 20260509144118 | 53 | 182 | 1.7 | 4.3 | 0.00 | 0.00 | 0.00 | 82 | 1028.6 |
| 20260509143615 | 54 | 325 | 1.7 | 10.4 | 0.00 | 0.00 | 0.00 | 81 | 1028.8 |
| 20260509143114 | 54 | 323 | 2.6 | 8.7 | 0.00 | 0.00 | 0.00 | 80 | 1028.7 |
| 20260509142614 | 55 | 288 | 3.5 | 5.2 | 0.00 | 0.00 | 0.00 | 80 | 1028.7 |
| 20260509142110 | 55 | 172 | 2.6 | 9.6 | 0.00 | 0.00 | 0.00 | 79 | 1028.8 |
| 20260509141606 | 55 | 253 | 1.7 | 3.5 | 0.00 | 0.00 | 0.00 | 79 | 1029.0 |
| 20260509141103 | 54 | 356 | 2.6 | 4.3 | 0.00 | 0.00 | 0.00 | 78 | 1028.9 |
| 20260509140600 | 54 | 356 | 2.6 | 3.5 | 0.00 | 0.00 | 0.00 | 78 | 1028.7 |
| 20260509140058 | 54 | 304 | 2.6 | 4.3 | 0.00 | 0.00 | 0.00 | 76 | 1028.8 |
| 20260509135555 | 55 | 307 | 3.5 | 5.2 | 0.00 | 0.00 | 0.00 | 74 | 1028.9 |
| 20260509135053 | 55 | 105 | 1.7 | 3.5 | 0.00 | 0.00 | 0.00 | 73 | 1028.9 |
| 20260509134549 | 55 | 291 | 4.3 | 4.3 | 0.00 | 0.00 | 0.00 | 70 | 1028.9 |
| 20260509134047 | 54 | 326 | 1.7 | 4.3 | 0.00 | 0.00 | 0.00 | 71 | 1028.8 |
| 20260509133543 | 54 | 324 | 2.6 | 7.8 | 0.00 | 0.00 | 0.00 | 72 | 1029.0 |
| 20260509133041 | 54 | 0 | 3.5 | 7.0 | 0.00 | 0.00 | 0.00 | 72 | 1029.1 |
| 20260509132539 | 54 | 341 | 2.6 | 5.2 | 0.00 | 0.00 | 0.00 | 70 | 1029.1 |
| 20260509132037 | 54 | 328 | 2.6 | 5.2 | 0.00 | 0.00 | 0.00 | 67 | 1029.2 |
| 20260509131533 | 55 | 321 | 4.3 | 5.2 | 0.00 | 0.00 | 0.00 | 66 | 1029.0 |
| 20260509131030 | 54 | 350 | 2.6 | 4.3 | 0.00 | 0.00 | 0.00 | 68 | 1029.3 |
| 20260509130525 | 54 | 41 | 0.9 | 4.3 | 0.00 | 0.00 | 0.00 | 67 | 1029.4 |
| 20260509130023 | 54 | 19 | 0.9 | 7.0 | 0.00 | 0.00 | 0.00 | 67 | 1029.3 |
| 20260509125519 | 54 | 36 | 1.7 | 4.3 | 0.00 | 0.00 | 0.00 | 66 | 1029.2 |
| 20260509125016 | 53 | 320 | 0.9 | 3.5 | 0.00 | 0.00 | 0.00 | 69 | 1029.2 |
| 20260509124513 | 53 | 42 | 0.9 | 3.5 | 0.00 | 0.00 | 0.00 | 69 | 1029.5 |
| 20260509124010 | 53 | 300 | 0.9 | 4.3 | 0.00 | 0.00 | 0.00 | 68 | 1029.4 |
| 20260509123508 | 52 | 208 | 1.7 | 5.2 | 0.00 | 0.00 | 0.00 | 67 | 1029.3 |
| 20260509123003 | 52 | 206 | 1.7 | 2.6 | 0.00 | 0.00 | 0.00 | 66 | 1029.3 |
| 20260509122500 | 51 | 128 | 0.0 | 2.6 | 0.00 | 0.00 | 0.00 | 65 | 1029.4 |
| 20260509121957 | 50 | 79 | 0.0 | 3.5 | 0.00 | 0.00 | 0.00 | 63 | 1029.3 |
| 20260509121454 | 50 | 107 | 1.7 | 2.6 | 0.00 | 0.00 | 0.00 | 64 | 1029.2 |
| 20260509120952 | 49 | 33 | 0.0 | 2.6 | 0.00 | 0.00 | 0.00 | 65 | 1029.3 |